TimeEDT,TemperatureF,Dew PointF,Humidity,Sea Level PressureIn,VisibilityMPH,Wind Direction,Wind SpeedMPH,Gust SpeedMPH,PrecipitationIn,Events,Conditions,WindDirDegrees,DateUTC
12:00 AM,62.6,50.0,63,29.89,25.0,North,10.4,-,N/A,,Scattered Clouds,360,2013-07-21 04:00:00
1:00 AM,59.0,50.0,72,29.91,25.0,North,9.2,-,N/A,,Scattered Clouds,350,2013-07-21 05:00:00
2:00 AM,59.0,50.0,72,29.94,25.0,North,9.2,-,N/A,,Mostly Cloudy,350,2013-07-21 06:00:00
3:00 AM,57.2,48.2,72,29.96,25.0,North,5.8,-,N/A,,Mostly Cloudy,350,2013-07-21 07:00:00
4:00 AM,55.4,48.2,77,29.98,25.0,North,6.9,-,N/A,,Overcast,350,2013-07-21 08:00:00
5:00 AM,53.6,48.2,82,30.00,45.0,North,4.6,-,N/A,,Scattered Clouds,350,2013-07-21 09:00:00
6:00 AM,53.6,48.2,82,30.01,45.0,North,3.5,-,N/A,,Scattered Clouds,360,2013-07-21 10:00:00
7:00 AM,55.4,46.4,72,30.03,45.0,North,5.8,-,N/A,,Partly Cloudy,10,2013-07-21 11:00:00
8:00 AM,59.0,44.6,59,30.05,45.0,North,5.8,-,N/A,,Partly Cloudy,10,2013-07-21 12:00:00
9:00 AM,60.8,44.6,55,30.06,45.0,NNE,5.8,-,N/A,,Partly Cloudy,30,2013-07-21 13:00:00
10:00 AM,62.6,44.6,52,30.06,45.0,NE,5.8,-,N/A,,Partly Cloudy,40,2013-07-21 14:00:00
11:00 AM,64.4,44.6,49,30.07,45.0,North,3.5,-,N/A,,Partly Cloudy,360,2013-07-21 15:00:00
12:00 PM,64.4,44.6,49,30.06,45.0,Variable,3.5,-,N/A,,Partly Cloudy,0,2013-07-21 16:00:00
1:00 PM,66.2,44.6,46,30.05,45.0,Variable,2.3,-,N/A,,Partly Cloudy,0,2013-07-21 17:00:00
2:00 PM,68.0,46.4,46,30.04,45.0,Variable,2.3,-,N/A,,Partly Cloudy,0,2013-07-21 18:00:00
3:00 PM,69.8,50.0,49,30.03,45.0,South,6.9,-,N/A,,Partly Cloudy,190,2013-07-21 19:00:00
4:00 PM,69.8,51.8,53,30.03,45.0,South,5.8,-,N/A,,Partly Cloudy,190,2013-07-21 20:00:00
5:00 PM,69.8,50.0,49,30.01,45.0,SSW,6.9,-,N/A,,Partly Cloudy,210,2013-07-21 21:00:00
6:00 PM,69.8,50.0,49,30.01,45.0,SW,6.9,-,N/A,,Partly Cloudy,220,2013-07-21 22:00:00
7:00 PM,68.0,50.0,52,30.01,45.0,SW,4.6,-,N/A,,Partly Cloudy,220,2013-07-21 23:00:00
8:00 PM,62.6,51.8,68,30.01,45.0,SSW,3.5,-,N/A,,Partly Cloudy,210,2013-07-22 00:00:00
9:00 PM,59.0,53.6,82,30.03,25.0,West,2.3,-,N/A,,Clear,260,2013-07-22 01:00:00
10:00 PM,57.2,51.8,82,30.04,25.0,WSW,3.5,-,N/A,,Clear,240,2013-07-22 02:00:00
11:00 PM,53.6,50.0,88,30.05,25.0,WSW,2.3,-,N/A,,Clear,250,2013-07-22 03:00:00